Wind_Speed
35 37 38 39 39 39 40 40 41 41 43 45 45 45 46 46 46 47 49 50 50 50 50 50 50 51 52 52 53 53 53 53 51 51 51 52 52 53 54 54 54 54 53
34 35 37 38 39 39 40 40 40 41 42 44 45 46 46 47 47 48 49 50 50 50 50 51 52 53 52 53 53 53 52 53 53 52 52 53 53 54 54 53 52 52 51
35 35 36 38 40 40 40 41 41 41 42 42 43 45 47 47 47 48 49 49 50 50 51 51 52 53 53 53 52 52 53 53 53 53 52 53 53 52 52 50 49 48 48
35 36 37 38 39 39 40 40 41 41 41 42 43 45 45 45 46 48 49 49 50 50 51 51 51 52 51 51 51 51 52 52 52 52 52 51 51 50 48 47 47 47 46
32 34 35 36 38 39 39 40 40 41 41 42 43 44 45 45 46 47 48 48 48 49 49 50 50 50 49 49 49 49 49 49 49 48 48 47 46 45 45 45 44 44 43
30 31 32 34 36 37 38 39 40 41 41 41 42 42 43 44 44 44 45 46 46 46 46 47 47 46 46 47 47 47 47 47 46 45 44 43 42 43 43 42 42 41 40
30 30 30 31 33 34 36 37 39 40 39 39 39 39 40 41 42 41 41 42 42 42 43 43 43 43 42 42 43 43 43 42 41 41 41 40 41 41 41 40 40 38 38
29 29 29 30 31 32 34 35 35 36 36 37 37 37 37 38 38 38 37 37 37 38 38 38 38 39 39 40 39 40 40 39 39 38 38 38 38 38 37 37 36 35 34
27 27 28 29 30 31 32 32 32 33 34 34 35 35 35 35 35 35 34 34 34 34 35 35 36 37 37 37 38 37 36 36 36 37 36 36 36 35 35 34 34 33 32
27 27 27 28 28 29 30 30 30 31 31 31 32 32 32 32 32 31 31 31 32 32 33 34 34 35 35 36 35 34 33 33 34 34 34 34 33 32 32 31 31 31 30
25 26 27 27 27 28 28 28 28 28 28 29 29 29 29 29 30 30 30 30 30 30 30 31 32 32 33 33 33 33 33 33 33 32 32 31 31 30 30 29 29 28 28
24 24 25 26 26 26 25 24 25 25 25 25 26 26 26 27 28 28 28 28 28 28 29 29 29 29 29 29 29 30 30 29 29 29 29 29 28 27 27 27 27 26 26
23 23 23 22 22 22 21 21 21 22 22 22 22 23 24 25 25 26 27 27 27 27 27 27 27 26 26 26 27 27 27 28 28 27 27 26 26 25 25 25 25 25 25
22 21 20 19 19 19 19 19 19 19 19 19 19 20 21 22 22 23 24 24 24 24 24 24 23 23 23 24 25 25 26 26 26 26 26 25 24 23 23 23 23 22 22
20 20 19 19 19 19 19 19 18 18 18 18 19 19 20 21 21 22 21 21 21 21 21 22 21 21 22 23 23 23 23 23 23 23 23 22 22 21 21 21 21 21 21
19 19 18 18 18 19 19 19 19 19 18 19 19 19 20 20 19 19 19 19 19 19 20 20 20 20 20 20 20 21 21 21 21 20 20 20 20 20 19 19 18 18 18
19 19 18 18 18 18 18 19 19 19 19 19 19 19 18 17 17 17 18 18 19 19 19 18 18 18 18 18 18 18 18 18 18 18 17 17 16 16 16 16 15 15 15
19 19 19 19 18 18 18 18 18 18 18 18 18 17 16 16 16 16 16 17 17 17 16 15 15 15 15 15 15 16 16 16 15 15 15 14 14 14 14 14 13 13 13
19 19 20 19 18 17 17 17 17 16 16 15 15 15 14 14 14 15 15 15 14 13 13 13 13 13 13 14 14 15 14 14 13 13 13 12 12 12 12 12 12 12 12
19 19 18 18 17 16 15 15 15 13 13 13 13 13 13 13 13 13 13 12 12 12 12 12 12 13 13 13 13 13 12 12 12 11 11 11 11 11 11 11 11 11 11
17 16 16 15 14 14 14 13 13 12 12 12 12 12 12 12 12 12 12 12 12 12 12 12 12 13 13 12 12 12 11 11 10 10 10 10 11 11 11 11 11 11 10
15 15 15 14 14 13 13 12 12 11 11 11 11 11 11 11 11 11 12 12 12 12 13 13 13 13 12 11 11 11 11 10 10 10 10 10 10 10 10 10 10 10 10
14 14 13 13 13 13 12 12 11 11 11 11 11 11 11 11 11 12 12 12 13 13 13 13 13 12 12 11 11 11 11 11 11 10 10 10 11 10 10 9 9 9 9
13 13 12 12 12 12 11 11 11 11 11 11 11 11 12 12 12 12 12 12 13 13 13 13 12 12 12 12 11 11 11 11 11 10 11 11 11 10 10 9 9 9 8
12 12 12 12 11 11 11 11 11 11 11 11 11 12 12 12 11 11 12 12 12 12 12 13 12 12 12 11 11 10 10 10 10 10 10 11 10 10 9 9 9 9 9
12 12 12 12 12 12 12 11 12 12 12 12 12 12 12 12 12 12 12 11 12 12 12 12 11 11 11 10 10 10 10 10 10 10 10 10 10 10 10 9 9 9 8
Wind_Direction
264 263 263 260 259 259 260 262 262 262 261 260 260 261 260 260 262 262 261 261 262 263 264 265 265 267 267 268 270 271 272 274 274 275 276 276 277 278 279 279 280 280 280
266 264 263 262 262 261 261 263 263 263 263 262 262 261 261 262 262 263 264 263 263 264 265 265 266 267 268 269 270 271 273 275 275 276 276 276 277 278 279 280 280 281 280
267 266 265 264 264 263 263 263 263 264 264 263 264 263 262 263 263 264 264 263 264 265 266 266 267 268 269 270 271 272 273 275 276 276 276 276 277 278 278 278 279 280 279
269 268 267 265 264 265 265 264 265 265 266 266 265 265 265 265 264 264 265 265 265 266 267 267 268 268 269 270 271 273 274 275 276 276 276 277 277 278 278 278 279 279 278
272 270 267 267 266 267 267 267 266 267 267 267 266 266 266 266 266 265 265 266 266 266 267 268 268 268 269 270 272 273 275 276 276 277 277 277 277 277 278 279 279 279 277
276 274 271 269 268 267 268 268 268 269 269 269 268 268 267 267 267 266 266 267 266 267 267 268 268 268 269 270 272 274 275 275 275 275 275 276 277 277 278 279 279 278 276
279 277 274 273 272 271 271 271 270 270 270 268 268 268 268 268 268 267 268 268 267 267 267 268 268 269 270 272 273 273 274 275 275 274 274 275 277 278 278 278 278 278 277
280 278 277 276 276 275 275 274 273 271 271 270 269 269 269 269 268 268 269 268 267 267 267 268 269 270 271 272 272 273 273 273 273 274 275 276 277 277 278 277 277 276 276
280 281 279 278 278 278 276 275 275 273 273 272 271 270 269 269 268 267 268 267 266 267 267 268 269 270 271 271 271 272 271 272 273 274 275 275 276 276 276 276 275 275 276
281 281 281 281 279 278 277 276 275 274 273 272 272 272 271 270 269 267 267 266 266 267 268 268 268 269 269 269 270 271 271 272 273 273 274 274 275 275 274 275 275 275 275
285 283 282 281 279 279 279 277 275 274 272 272 272 272 271 270 269 267 267 267 266 268 269 269 270 271 272 271 271 271 271 273 273 273 273 274 274 273 273 274 275 275 275
286 286 285 283 280 279 280 279 278 276 274 272 272 271 271 272 271 270 269 269 269 270 270 270 271 272 273 273 274 273 272 272 271 271 272 272 272 271 271 271 273 275 274
287 287 287 286 282 280 280 280 280 278 274 272 272 273 272 272 273 273 272 270 269 271 271 272 272 272 274 276 275 274 272 270 270 270 271 271 271 271 272 272 272 273 272
285 287 288 286 283 281 282 282 282 281 278 275 273 274 274 274 273 272 272 269 268 271 272 272 271 273 276 277 276 274 273 273 271 269 269 271 271 272 273 272 273 273 273
284 284 285 285 285 284 285 284 283 282 281 278 276 275 275 275 274 272 272 271 272 274 272 271 272 273 275 275 275 274 273 272 270 269 269 269 269 270 270 272 273 273 272
287 288 287 287 287 287 284 282 282 282 283 282 280 279 279 278 276 273 272 271 273 273 272 272 272 272 274 274 275 275 274 272 269 269 269 269 270 270 270 271 272 272 273
285 286 287 287 287 286 284 283 283 284 285 284 282 281 280 278 276 275 274 275 275 274 272 273 273 272 272 273 274 274 273 271 269 269 269 269 269 268 268 270 272 273 273
284 285 287 288 288 287 285 285 285 286 286 284 281 280 277 275 275 274 274 275 276 274 273 273 273 273 273 273 275 277 275 273 270 269 268 267 266 266 267 270 271 271 270
283 284 286 287 287 286 286 286 286 286 285 283 281 277 275 275 274 272 272 275 275 274 274 276 276 276 277 276 277 278 276 272 268 265 266 266 264 264 267 268 268 267 268
283 284 285 285 285 284 285 287 288 286 284 282 280 278 276 274 273 272 272 275 276 276 276 277 278 279 280 277 277 277 274 268 265 265 264 262 262 263 265 266 267 267 268
284 284 284 283 282 283 285 286 285 283 283 282 282 279 276 274 274 274 275 275 277 278 279 280 281 284 284 280 278 277 271 266 265 264 262 259 257 259 263 266 267 266 267
282 282 281 281 281 282 283 284 282 280 281 281 280 278 278 278 277 278 278 277 278 279 281 284 284 283 282 279 279 276 269 264 262 261 259 255 256 259 263 265 265 263 264
282 280 279 279 280 281 281 279 277 276 277 278 277 278 278 279 280 279 276 275 276 279 281 282 282 281 279 276 276 274 268 262 260 260 255 255 258 260 262 262 260 258 261
281 279 278 278 279 280 280 278 276 275 275 276 277 279 280 280 280 278 276 277 279 281 282 282 282 280 278 277 276 272 266 260 258 256 252 254 257 258 259 258 255 256 263
278 275 275 276 276 277 280 280 278 277 277 277 279 279 279 280 279 279 279 279 280 281 282 282 281 279 276 274 273 269 263 259 256 254 251 251 252 254 255 253 254 258 264
277 276 274 272 273 276 279 279 279 278 278 279 280 280 280 280 280 280 281 281 280 282 282 280 279 276 273 272 271 268 264 258 255 252 250 249 249 250 250 250 254 259 262
Height
5607 5607 5607 5608 5609 5611 5612 5613 5614 5615 5616 5617 5618 5619 5621 5622 5623 5624 5625 5626 5627 5627 5628 5628 5628 5627 5627 5627 5626 5625 5624 5623 5624 5625 5623 5621 5619 5617 5614 5612 5609 5607 5605
5597 5597 5597 5597 5598 5600 5601 5601 5602 5603 5604 5605 5606 5607 5608 5609 5610 5611 5612 5613 5613 5614 5614 5614 5614 5613 5613 5613 5612 5611 5611 5609 5609 5610 5609 5607 5605 5602 5600 5597 5595 5593 5591
5587 5587 5587 5587 5587 5588 5589 5589 5590 5591 5592 5593 5594 5594 5595 5596 5597 5597 5598 5599 5600 5600 5601 5600 5600 5600 5599 5599 5598 5598 5597 5596 5595 5594 5594 5592 5590 5587 5585 5583 5580 5579 5577
5577 5576 5576 5577 5577 5577 5577 5578 5578 5579 5580 5581 5581 5581 5582 5583 5583 5584 5585 5585 5586 5586 5586 5586 5586 5585 5585 5585 5584 5584 5583 5582 5581 5580 5579 5577 5575 5573 5570 5569 5567 5565 5564
5567 5566 5566 5566 5566 5566 5566 5566 5567 5567 5568 5568 5568 5568 5569 5569 5570 5570 5571 5572 5572 5572 5572 5572 5571 5571 5571 5571 5571 5570 5569 5568 5567 5565 5564 5563 5562 5559 5558 5555 5554 5552 5551
5558 5557 5556 5556 5556 5556 5556 5556 5556 5556 5556 5556 5556 5556 5556 5556 5556 5556 5557 5558 5558 5559 5559 5558 5558 5558 5558 5558 5557 5557 5556 5555 5554 5553 5552 5550 5549 5547 5545 5543 5541 5540 5539
5550 5548 5547 5547 5546 5546 5545 5545 5545 5544 5544 5544 5544 5544 5544 5544 5544 5544 5544 5545 5546 5546 5546 5546 5546 5546 5546 5546 5545 5545 5544 5542 5542 5541 5540 5539 5537 5535 5533 5531 5529 5528 5527
5542 5540 5539 5538 5537 5536 5535 5534 5534 5533 5532 5532 5532 5532 5533 5533 5533 5533 5533 5534 5534 5534 5535 5535 5535 5535 5535 5534 5534 5533 5532 5531 5530 5529 5528 5527 5525 5523 5521 5520 5518 5517 5516
5534 5532 5531 5529 5528 5527 5526 5525 5524 5523 5522 5522 5522 5522 5522 5523 5522 5523 5523 5523 5524 5524 5524 5524 5524 5524 5524 5523 5523 5522 5521 5520 5519 5518 5517 5515 5514 5512 5511 5509 5508 5507 5507
5527 5525 5523 5521 5520 5518 5517 5516 5515 5514 5513 5513 5513 5513 5513 5513 5513 5513 5514 5514 5514 5515 5515 5515 5514 5514 5513 5512 5512 5511 5511 5510 5509 5508 5507 5505 5504 5503 5501 5500 5499 5498 5498
5520 5518 5515 5514 5512 5510 5509 5507 5506 5506 5505 5505 5505 5505 5505 5505 5504 5505 5504 5505 5505 5506 5506 5505 5505 5504 5503 5502 5501 5501 5500 5500 5499 5498 5497 5496 5495 5494 5493 5492 5491 5490 5490
5512 5510 5508 5506 5504 5503 5501 5500 5499 5498 5498 5497 5498 5498 5497 5497 5497 5497 5496 5496 5497 5497 5497 5496 5496 5495 5494 5493 5492 5491 5491 5490 5490 5489 5489 5487 5486 5485 5484 5484 5483 5482 5482
5506 5503 5501 5500 5498 5496 5495 5494 5493 5492 5491 5491 5491 5490 5490 5490 5489 5489 5489 5489 5489 5488 5488 5488 5487 5486 5485 5485 5484 5483 5482 5481 5481 5481 5480 5479 5478 5477 5476 5476 5475 5474 5474
5499 5497 5495 5494 5492 5491 5489 5488 5487 5486 5485 5485 5484 5484 5484 5483 5482 5482 5482 5481 5481 5480 5480 5480 5479 5478 5478 5477 5476 5475 5474 5473 5473 5472 5472 5471 5471 5470 5469 5468 5468 5467 5467
5493 5491 5490 5489 5487 5486 5484 5483 5482 5481 5480 5479 5478 5478 5477 5477 5476 5475 5474 5474 5474 5473 5473 5472 5472 5472 5471 5470 5469 5468 5467 5466 5465 5465 5464 5464 5463 5463 5462 5462 5461 5460 5460
5488 5486 5485 5483 5482 5480 5479 5478 5476 5475 5474 5473 5472 5471 5470 5469 5468 5468 5467 5467 5467 5467 5466 5466 5465 5465 5464 5464 5463 5462 5461 5460 5459 5458 5458 5457 5457 5456 5456 5455 5455 5454 5454
5482 5481 5479 5478 5476 5475 5473 5472 5470 5469 5468 5466 5465 5465 5464 5463 5462 5462 5461 5461 5461 5460 5460 5460 5459 5459 5458 5457 5457 5456 5455 5454 5453 5452 5452 5451 5451 5451 5451 5450 5450 5449 5448
5476 5475 5474 5472 5471 5469 5467 5466 5464 5463 5462 5460 5460 5459 5458 5457 5457 5457 5456 5456 5455 5455 5454 5454 5454 5453 5452 5452 5451 5450 5449 5448 5447 5447 5447 5447 5446 5446 5446 5446 5445 5445 5444
5470 5469 5468 5466 5465 5463 5461 5460 5459 5457 5456 5455 5454 5453 5453 5452 5452 5452 5451 5451 5451 5450 5450 5449 5449 5448 5448 5447 5446 5445 5444 5443 5443 5443 5443 5442 5442 5442 5442 5442 5441 5441 5441
5464 5463 5462 5460 5459 5458 5456 5455 5454 5452 5452 5451 5450 5450 5449 5448 5448 5448 5447 5447 5447 5446 5446 5446 5445 5444 5443 5442 5441 5440 5440 5439 5439 5439 5439 5439 5439 5439 5439 5438 5438 5438 5437
5459 5458 5457 5455 5454 5453 5452 5451 5450 5449 5448 5447 5446 5445 5445 5445 5444 5444 5444 5443 5443 5443 5442 5442 5441 5440 5439 5438 5437 5436 5436 5436 5436 5436 5436 5436 5436 5435 5435 5435 5435 5435 5434
5454 5453 5452 5451 5450 5449 5448 5447 5446 5445 5444 5443 5443 5442 5441 5441 5441 5440 5440 5440 5439 5438 5438 5437 5437 5436 5435 5434 5433 5433 5432 5432 5432 5432 5432 5432 5432 5432 5432 5432 5432 5432 5432
5449 5448 5448 5447 5446 5445 5444 5443 5442 5441 5441 5440 5439 5439 5438 5438 5437 5437 5436 5436 5435 5435 5434 5434 5433 5432 5431 5430 5429 5429 5429 5429 5429 5429 5429 5429 5429 5429 5429 5429 5429 5429 5429
5445 5444 5444 5443 5442 5441 5440 5439 5439 5438 5437 5437 5436 5436 5435 5434 5433 5433 5432 5432 5431 5430 5430 5429 5428 5427 5427 5426 5425 5425 5425 5425 5425 5425 5425 5425 5426 5426 5426 5426 5426 5426 5426
5441 5440 5440 5439 5438 5438 5437 5436 5435 5435 5434 5433 5433 5432 5431 5431 5430 5429 5428 5428 5427 5426 5426 5425 5424 5423 5423 5422 5422 5421 5421 5421 5421 5421 5422 5422 5422 5422 5423 5423 5423 5423 5424
5437 5437 5436 5435 5435 5434 5433 5433 5432 5431 5430 5430 5429 5428 5427 5427 5426 5425 5424 5424 5423 5422 5421 5421 5420 5419 5419 5418 5418 5418 5418 5418 5418 5418 5418 5419 5419 5419 5420 5420 5420 5420 5421